sat.trackr.live / text

‹ back to catalog

ALSAT-3A

NORAD 67474 · 2026-009A

PAYLOAD ACTIVE UNKNOWN

§ Identity

Operator
Country
ALG
Launch date
2026-01-15
Launch site
JSC
Launch vehicle
Mass (kg)
RCS (m²)

External: N2YO · Heavens-Above · Gunter

§ Orbital elements

Epoch: 2026-09-20T21:28:55.759584Z

Period
94.54 min
Inclination
97.4467°
Eccentricity
0.0009165
Mean motion
15.23137913 rev/d
Perigee alt
490.1 km
Apogee alt
502.7 km
Semi-major
6,874.5 km
B*
1.4975e-4
RAAN
337.0838°
Arg perigee
132.9467°
Mean anomaly
227.2540°
Rev number
3,784

§ Raw data

ALSAT-3A1 67474U 26009A   26263.89508981  .00003467  00000+0  14975-3 0  99902 67474  97.4467 337.0838 0009165 132.9467 227.2540 15.23137913 37841

JSON: /api/v1/satellites/67474 · /tle

For live sub-satellite position, see the globe view (requires WebGL).

§ Visibility from observer

Set your observer location to see the next 7 days of passes ≥ 10°. The values pass through the URL so the page stays shareable.

No JS? Fill the form by hand. The geolocation button needs JavaScript.